Norfolk, VA (23502)

8:40 PM EDT on May 27, 2017 (GMT -0400)
Moores Bridges WTP | | Change Station
Active Advisory: Severe Thunderstorm Watch

Elev 9 ft 36.87 °N, 76.20 °W | Updated 1 minute ago

Scattered Clouds
Scattered Clouds
74.8 °F
Feels Like 77 °F
N
2.0
Wind Variable Wind from South
Gusts 4.0 mph

Today
High -- | Low -- °F
--% Chance of Precip.
Yesterday
High -- | Low -- °F
Precip. -- in
Pressure 29.85 in
Visibility 10.0 miles
Clouds Few 5500 ft
Scattered Clouds 9000 ft
Scattered Clouds 11000 ft
Heat Index 77 °F
Dew Point 64 °F
Humidity 68%
Rainfall 0.00 in
Snow Depth Not available.
5:49 AM 8:15 PM
Waxing Crescent, 7% visible
METAR KORF 272351Z 09004KT 10SM FEW055 SCT090 SCT110 25/19 A2985 RMK AO2 SLP108 T02500189 10300 20244 53004
Pressure 29.85 in
Visibility 10.0 miles
Clouds Few 5500 ft
Scattered Clouds 9000 ft
Scattered Clouds 11000 ft
Heat Index 77 °F
Dew Point 64 °F
Humidity 68%
Rainfall 0.00 in
Snow Depth Not available.
5:49 AM 8:15 PM
Waxing Crescent, 7% visible
METAR KORF 272351Z 09004KT 10SM FEW055 SCT090 SCT110 25/19 A2985 RMK AO2 SLP108 T02500189 10300 20244 53004

Get Your Daily Forecast Email!

Thanks for signing up!

Be on the lookout for a verification email in your inbox.

You'll start receiving severe weather alerts in your inbox..

×

10-Day Weather Forecast

Almanac

Astronomy

May. 27, 2017 Rise Set
Actual Time
Civil Twilight
Nautical Twilight
Astronomical Twilight
Moon
Length of Visible Light
Length of Day
Tomorrow will be .
, % of the Moon is Illuminated

Today's Extremes

State Highs State Lows

Community

WunderPhotos

Category 6

Welcome to Category 6. This is the collective home for Weather Underground's featured writeups by Dr. Jeff Masters (right), Bob Henson (left), Chris Burt, and other regular contributors.

Nearby

Air Quality

  Air Quality AQ Index Pollutant
Not available.

Snow Depth

Station Depth Elevation

Earthquake Activity

City Distance Mag. Time & Date
Minimum magnitude displayed is 2.5.

Coastal Water Temperatures

Place Temperature

Stations

Nearby Weather Stations

Station Location Temp. Windchill Dew Point Humidity Wind Precip. Elev Updated Type
                   

Watches & Warnings

Severe Thunderstorm Watch
Issued: 8:24 PM EDT May. 27, 2017 – National Weather Service

Severe Thunderstorm Watch 278 remains in effect until 1000 PM EDT

VA
. Virginia counties included are

Amelia Amherst Appomattox
Brunswick Buckingham Campbell
Caroline Charles City Charlotte
Chesterfield Cumberland Dinwiddie
Essex Fluvanna Gloucester
Goochland Greensville Halifax
Hanover Henrico Isle of Wight
James City King And Queen King William
Louisa Lunenburg Mathews
Mecklenburg Middlesex New Kent
Nottoway Powhatan Prince Edward
Prince George Southampton Surry
Sussex York


Virginia independent cities included are

Chesapeake Colonial Heights Emporia
Franklin Hampton Hopewell
Lynchburg Newport News Norfolk
Petersburg Poquoson Portsmouth
Richmond Suffolk Virginia Beach
Williamsburg